Location: Eboldshausen
(51.7766°N, 10.0050°E)
Time: 06:35:29
(UTC+00:00)

BREEZE-M DEB (TANK) - Pass Details

Date: 15 November 2025
Orbit: 284 x 18361 km, 52.5° (Epoch: 10 December)

Event Time Altitude Azimuth Distance (km) Brightness Sun altitude
Rises 16:47:58 0° 215° (SW) 1,986 6.5 -12.1°
Reaches altitude 10° 16:49:25 10° 202° (SSW) 1,317 5.3 -12.3°
Maximum altitude 16:51:39 31° 135° (SE) 908 3.7 -12.6°
Enters shadow 16:54:12 18° 84° (E) 1,827 4.8 -13.0°
